sat.trackr.live / text

‹ back to catalog

KUIPER-00409

NORAD 68925 · 2026-098G

PAYLOAD ACTIVE UNKNOWN

§ Identity

Operator
Country
US
Launch date
2026-04-30
Launch site
FRGUI
Launch vehicle
Mass (kg)
RCS (m²)

External: N2YO · Heavens-Above · Gunter

§ Orbital elements

Epoch: 2026-09-19T23:10:14.238048Z

Period
97.30 min
Inclination
51.9033°
Eccentricity
0.0000486
Mean motion
14.79930486 rev/d
Perigee alt
629.2 km
Apogee alt
629.9 km
Semi-major
7,007.7 km
B*
2.9107e-4
RAAN
359.0622°
Arg perigee
95.8187°
Mean anomaly
264.2831°
Rev number
2,151

§ Raw data

KUIPER-004091 68925U 26098G   26262.96544257  .00001998  00000+0  29107-3 0  99932 68925  51.9033 359.0622 0000486  95.8187 264.2831 14.79930486 21512

JSON: /api/v1/satellites/68925 · /tle

For live sub-satellite position, see the globe view (requires WebGL).

§ Visibility from observer

Set your observer location to see the next 7 days of passes ≥ 10°. The values pass through the URL so the page stays shareable.

No JS? Fill the form by hand. The geolocation button needs JavaScript.